| time (UTC) | temp C | wind direction | speed KPH | gust KPH | rain 1hr cm | rain 24hr cm | rain mn cm | humidity % | barometer mb |
| 20260505161541 | 15 | 110 | 3.2 | 20.9 | 0.00 | 0.00 | 0.00 | 90 | 1011.2 |
| 20260505153039 | 16 | 109 | 4.8 | 16.1 | 0.00 | 0.00 | 0.00 | 86 | 1010.4 |
| 20260505151541 | 16 | 109 | 0.0 | 9.7 | 0.00 | 0.00 | 0.00 | 85 | 1010.3 |
| 20260505124533 | 17 | 107 | 0.0 | 0.0 | 0.00 | 0.00 | 0.00 | 84 | 1010.0 |
| 20260505123045 | 17 | 107 | 0.0 | 0.0 | 0.00 | 0.00 | 0.00 | 86 | 1010.1 |
| 20260505121533 | 17 | 107 | 0.0 | 4.8 | 0.00 | 0.00 | 0.00 | 87 | 1010.3 |
| 20260505120037 | 17 | 107 | 0.0 | 0.0 | 0.00 | 0.00 | 0.00 | 86 | 1010.5 |
| 20260505114532 | 17 | 107 | 0.0 | 0.0 | 0.00 | 0.00 | 0.00 | 85 | 1010.7 |
| 20260505113023 | 17 | 107 | 0.0 | 0.0 | 0.00 | 0.00 | 0.00 | 84 | 1010.8 |
| 20260505111523 | 18 | 107 | 0.0 | 0.0 | 0.00 | 0.00 | 0.00 | 83 | 1011.0 |
| 20260505101520 | 17 | 107 | 0.0 | 0.0 | 0.00 | 0.00 | 0.00 | 85 | 1012.0 |
| 20260505100119 | 17 | 107 | 0.0 | 0.0 | 0.00 | 0.00 | 0.00 | 86 | 1012.3 |
| 20260505094517 | 17 | 107 | 0.0 | 0.0 | 0.00 | 0.00 | 0.00 | 86 | 1012.5 |
| 20260505093016 | 18 | 107 | 0.0 | 0.0 | 0.00 | 0.00 | 0.00 | 86 | 1012.8 |
| 20260505091513 | 17 | 107 | 0.0 | 0.0 | 0.00 | 0.00 | 0.00 | 88 | 1013.1 |
| 20260505090012 | 16 | 107 | 0.0 | 0.0 | 0.00 | 0.00 | 0.00 | 89 | 1013.3 |
| 20260505084514 | 16 | 107 | 0.0 | 0.0 | 0.00 | 0.00 | 0.00 | 90 | 1013.6 |
| 20260505083013 | 16 | 107 | 0.0 | 0.0 | 0.00 | 0.00 | 0.00 | 89 | 1013.7 |
| 20260505081510 | 17 | 107 | 0.0 | 0.0 | 0.00 | 0.00 | 0.00 | 90 | 1013.9 |
| 20260505080006 | 16 | 107 | 0.0 | 0.0 | 0.00 | 0.00 | 0.00 | 92 | 1014.1 |
| 20260505074503 | 16 | 107 | 0.0 | 12.9 | 0.00 | 0.00 | 0.00 | 92 | 1014.0 |
| 20260505073002 | 15 | 107 | 0.0 | 0.0 | 0.00 | 0.00 | 0.00 | 93 | 1014.0 |
| 20260505071600 | 15 | 107 | 0.0 | 0.0 | 0.00 | 0.00 | 0.00 | 92 | 1014.1 |
| 20260505070100 | 15 | 107 | 9.7 | 14.5 | 0.00 | 0.00 | 0.00 | 93 | 1014.0 |
| 20260505064558 | 15 | 107 | 0.0 | 0.0 | 0.00 | 0.00 | 0.00 | 93 | 1014.1 |
| 20260505063100 | 14 | 107 | 0.0 | 0.0 | 0.00 | 0.00 | 0.00 | 93 | 1013.9 |
| 20260505061601 | 14 | 107 | 0.0 | 0.0 | 0.00 | 0.00 | 0.00 | 94 | 1014.0 |
| 20260505060053 | 13 | 107 | 0.0 | 0.0 | 0.00 | 0.00 | 0.00 | 93 | 1013.7 |
| 20260505054556 | 13 | 107 | 0.0 | 0.0 | 0.00 | 0.00 | 0.00 | 94 | 1013.7 |
| 20260505053050 | 13 | 107 | 0.0 | 4.8 | 0.00 | 0.00 | 0.00 | 94 | 1013.3 |
| 20260505051549 | 13 | 107 | 0.0 | 6.4 | 0.00 | 0.00 | 0.00 | 94 | 1012.8 |
| 20260505050120 | 12 | 107 | 4.8 | 12.9 | 0.00 | 0.00 | 0.00 | 94 | 1012.4 |
| 20260505041553 | 12 | 107 | 0.0 | 0.0 | 0.00 | 0.00 | 0.00 | 93 | 1011.8 |
| 20260505040053 | 13 | 107 | 0.0 | 1.6 | 0.00 | 0.00 | 0.00 | 94 | 1011.7 |
| 20260505034543 | 12 | 107 | 0.0 | 1.6 | 0.00 | 0.00 | 0.00 | 94 | 1011.6 |
| 20260505033046 | 13 | 107 | 0.0 | 4.8 | 0.00 | 0.00 | 0.00 | 94 | 1011.5 |
| 20260505031547 | 12 | 107 | 0.0 | 9.7 | 0.00 | 0.00 | 0.00 | 94 | 1011.4 |
| 20260505030043 | 12 | 107 | 1.6 | 6.4 | 0.00 | 0.00 | 0.00 | 94 | 1011.3 |
| 20260505024541 | 12 | 107 | 1.6 | 20.9 | 0.00 | 0.00 | 0.00 | 94 | 1011.2 |
| 20260505023044 | 12 | 107 | 3.2 | 17.7 | 0.00 | 0.00 | 0.00 | 94 | 1011.1 |
| 20260505021541 | 12 | 107 | 6.4 | 19.3 | 0.00 | 0.00 | 0.00 | 94 | 1011.0 |
| 20260505020036 | 12 | 110 | 4.8 | 20.9 | 0.00 | 0.00 | 0.00 | 94 | 1010.8 |
| 20260505014536 | 12 | 117 | 4.8 | 20.9 | 0.00 | 0.00 | 0.00 | 93 | 1011.0 |
| 20260505013028 | 13 | 117 | 1.6 | 11.3 | 0.00 | 0.00 | 0.00 | 93 | 1010.8 |
| 20260505011531 | 13 | 117 | 0.0 | 9.7 | 0.00 | 0.00 | 0.00 | 93 | 1011.0 |
| 20260505010025 | 13 | 117 | 0.0 | 11.3 | 0.00 | 0.00 | 0.00 | 93 | 1010.9 |
| 20260505004533 | 13 | 117 | 0.0 | 6.4 | 0.00 | 0.00 | 0.00 | 93 | 1011.1 |
| 20260505003023 | 13 | 117 | 0.0 | 0.0 | 0.00 | 0.00 | 0.00 | 93 | 1011.1 |
| 20260505001523 | 13 | 117 | 0.0 | 0.0 | 0.00 | 0.00 | 0.00 | 93 | 1011.2 |
| 20260505000028 | 13 | 117 | 0.0 | 0.0 | 0.00 | 0.00 | 0.00 | 93 | 1011.1 |
| 20260504234521 | 13 | 117 | 0.0 | 0.0 | 0.00 | 0.00 | 0.00 | 93 | 1011.1 |
| 20260504233021 | 13 | 117 | 0.0 | 1.6 | 0.00 | 0.00 | 0.00 | 93 | 1010.9 |
| 20260504231519 | 13 | 117 | 0.0 | 0.0 | 0.00 | 0.00 | 0.00 | 93 | 1011.1 |
| 20260504230019 | 13 | 117 | 0.0 | 3.2 | 0.00 | 0.00 | 0.00 | 93 | 1011.4 |
| 20260504224514 | 14 | 117 | 0.0 | 3.2 | 0.00 | 0.00 | 0.00 | 92 | 1011.5 |
| 20260504223012 | 14 | 117 | 0.0 | 0.0 | 0.00 | 0.00 | 0.00 | 92 | 1011.8 |
| 20260504221516 | 14 | 117 | 0.0 | 0.0 | 0.00 | 0.00 | 0.00 | 93 | 1011.9 |
| 20260504220009 | 14 | 117 | 0.0 | 1.6 | 0.00 | 0.00 | 0.00 | 92 | 1012.0 |
| 20260504214511 | 15 | 117 | 0.0 | 0.0 | 0.00 | 0.00 | 0.00 | 92 | 1012.2 |
| 20260504213020 | 15 | 117 | 0.0 | 0.0 | 0.00 | 0.00 | 0.00 | 92 | 1012.4 |
| 20260504211506 | 15 | 117 | 0.0 | 1.6 | 0.00 | 0.00 | 0.00 | 92 | 1012.5 |
| 20260504210059 | 15 | 117 | 0.0 | 3.2 | 0.00 | 0.00 | 0.00 | 92 | 1012.5 |
| 20260504204558 | 15 | 117 | 0.0 | 0.0 | 0.00 | 0.00 | 0.00 | 92 | 1012.5 |
| 20260504203120 | 15 | 117 | 0.0 | 1.6 | 0.00 | 0.00 | 0.00 | 92 | 1012.6 |
| 20260504201558 | 15 | 117 | 0.0 | 4.8 | 0.00 | 0.00 | 0.00 | 92 | 1012.7 |
| 20260504200058 | 15 | 117 | 0.0 | 0.0 | 0.00 | 0.00 | 0.00 | 92 | 1012.9 |
| 20260504194606 | 15 | 117 | 0.0 | 0.0 | 0.00 | 0.00 | 0.00 | 92 | 1013.0 |
| 20260504193109 | 15 | 117 | 0.0 | 0.0 | 0.00 | 0.00 | 0.00 | 92 | 1013.0 |
| 20260504191555 | 15 | 117 | 0.0 | 0.0 | 0.00 | 0.00 | 0.00 | 92 | 1012.9 |
| 20260504190114 | 15 | 117 | 0.0 | 0.0 | 0.00 | 0.00 | 0.00 | 92 | 1012.8 |
| 20260504184606 | 15 | 117 | 0.0 | 0.0 | 0.00 | 0.00 | 0.00 | 92 | 1012.8 |
| 20260504183057 | 15 | 117 | 0.0 | 0.0 | 0.00 | 0.00 | 0.00 | 92 | 1012.5 |
| 20260504181554 | 15 | 117 | 0.0 | 1.6 | 0.00 | 0.00 | 0.00 | 92 | 1012.2 |
| 20260504180054 | 15 | 117 | 0.0 | 4.8 | 0.00 | 0.00 | 0.00 | 92 | 1012.1 |
| 20260504174602 | 15 | 117 | 0.0 | 0.0 | 0.00 | 0.00 | 0.00 | 91 | 1012.0 |
| 20260504173057 | 16 | 117 | 0.0 | 0.0 | 0.00 | 0.00 | 0.00 | 91 | 1012.1 |
| 20260504171552 | 16 | 117 | 0.0 | 0.0 | 0.00 | 0.00 | 0.00 | 91 | 1012.0 |